This demonstration page uses our WeatherBlox Daily Observations layout. Learn more.

Left ArrowRight Arrow

39.01783, -85.05884

Hourly Observations for April 19, 2018

Temp ( °F °C ) Dew Point ( °F °C ) Humidity (%) Winds ( mph kmh ) Pressure ( in mb ) Visibility ( mi km ) Precip ( " mm )
12:52 am 00:52 Cloudy 45 7.2 34 1.1 66 66 WNW 15 24 29.85 1011 10 16 N/A
1:32 am 01:32 Cloudy 45 7.2 35 1.7 68 68 NW 14 22 29.91 1013 10 16 N/A
1:52 am 01:52 Cloudy 44 6.7 32 undefined 63 63 WNW 21 33 29.88 1012 10 16 N/A
2:52 am 02:52 Cloudy 41 5 30 -1.1 65 65 WNW 21 33 29.89 1012 10 16 N/A
3:52 am 03:52 Cloudy 40 4.4 29 -1.7 65 65 WNW 17 28 29.90 1013 10 16 N/A
4:52 am 04:52 Cloudy 39 3.9 28 -2.2 65 65 WNW 16 26 29.92 1013 10 16 N/A
5:42 am 05:42 Cloudy 39 3.9 28 -2.2 65 65 WNW 16 26 29.97 1015 10 16 N/A
5:52 am 05:52 Cloudy 39 3.9 29 -1.7 67 67 W 18 30 29.94 1014 10 16 N/A
6:23 am 06:23 Cloudy 38 3.3 27 -2.8 65 65 WNW 24 39 30.00 1016 10 16 N/A
6:52 am 06:52 Cloudy 38 3.3 28 -2.2 68 68 WNW 17 28 30.00 1016 10 16 N/A
7:08 am 07:08 Cloudy 37 2.8 27 -2.8 67 67 W 23 37 30.06 1018 10 16 N/A
7:52 am 07:52 Cloudy 37 2.8 29 -1.7 73 73 WNW 18 30 30.05 1018 10 16 N/A
8:52 am 08:52 Cloudy 37 2.8 30 -1.1 76 76 WNW 18 30 30.08 1019 10 16 N/A
9:52 am 09:52 Cloudy 38 3.3 31 -0.6 76 76 NW 14 22 30.12 1020 10 16 N/A
10:52 am 10:52 Cloudy 39 3.9 31 -0.6 73 73 NW 12 19 30.17 1022 10 16 N/A
11:52 am 11:52 Cloudy 41 5 32 undefined 70 70 NW 13 20 30.21 1023 10 16 N/A
12:52 pm 12:52 Cloudy 42 5.6 32 undefined 68 68 WNW 12 19 30.23 1024 10 16 N/A
1:22 pm 13:22 Cloudy 44 6.7 30 -1.1 58 58 NW 15 24 30.27 1025 10 16 N/A
1:52 pm 13:52 Mostly Cloudy 46 7.8 29 -1.7 51 51 NNW 13 20 30.26 1025 10 16 N/A
2:52 pm 14:52 Mostly Cloudy 49 9.4 30 -1.1 48 48 N 13 20 30.27 1025 10 16 N/A
3:52 pm 15:52 Partly Cloudy 51 10.6 30 -1.1 44 44 N 13 20 30.27 1025 10 16 N/A
4:52 pm 16:52 Partly Cloudy 52 11.1 28 -2.2 40 40 NNW 10 17 30.26 1025 10 16 N/A
5:52 pm 17:52 Mostly Sunny 54 12.2 27 -2.8 35 35 NW 13 20 30.26 1025 10 16 N/A
6:52 pm 18:52 Sunny 54 12.2 25 -3.9 33 33 NNW 12 19 30.28 1025 10 16 N/A
7:52 pm 19:52 Sunny 52 11.1 26 -3.3 37 37 NW 13 20 30.27 1025 10 16 N/A
8:52 pm 20:52 Clear 48 8.9 27 -2.8 44 44 WNW 7 11 30.29 1026 10 16 N/A
9:52 pm 21:52 Clear 45 7.2 28 -2.2 52 52 WNW 8 13 30.31 1026 10 16 N/A
10:52 pm 22:52 Clear 45 7.2 28 -2.2 52 52 NW 9 15 30.32 1027 10 16 N/A
11:52 pm 23:52 Clear 44 6.7 26 -3.3 49 49 NNW 9 15 30.33 1027 10 16 N/A

Powered by AerisWeather